TimeEST,TemperatureF,Dew PointF,Humidity,Sea Level PressureIn,VisibilityMPH,Wind Direction,Wind SpeedMPH,Gust SpeedMPH,PrecipitationIn,Events,Conditions,WindDirDegrees,DateUTC
12:35 AM,33.8,26.6,75,30.45,7.0,ENE,12.7,-,0.00,,Overcast,60,2013-12-09 05:35:00
12:53 AM,34.0,27.0,75,30.44,6.0,ENE,12.7,-,0.00,Snow,Light Snow,60,2013-12-09 05:53:00
1:53 AM,34.0,28.9,82,30.40,6.0,ENE,15.0,20.7,0.00,,Overcast,70,2013-12-09 06:53:00
2:30 AM,33.8,30.2,87,30.41,2.5,East,11.5,20.7,0.01,Snow,Light Snow,90,2013-12-09 07:30:00
2:42 AM,33.8,30.2,87,30.40,2.5,East,13.8,-,0.01,Snow,Light Snow,80,2013-12-09 07:42:00
2:46 AM,33.8,30.2,87,30.40,3.0,East,12.7,-,0.01,Rain,Light Rain,90,2013-12-09 07:46:00
2:53 AM,34.0,30.9,89,30.41,3.0,East,11.5,-,0.02,Rain,Light Rain,80,2013-12-09 07:53:00
3:00 AM,33.8,30.2,87,30.40,2.0,East,9.2,-,0.00,Rain,Light Freezing Rain,80,2013-12-09 08:00:00
3:05 AM,33.8,30.2,87,30.39,1.8,ENE,10.4,-,0.01,Rain,Light Freezing Rain,70,2013-12-09 08:05:00
3:14 AM,33.8,30.2,87,30.38,2.0,ENE,9.2,-,0.01,Snow,Light Snow,70,2013-12-09 08:14:00
3:24 AM,33.8,32.0,93,30.39,2.5,ENE,10.4,-,0.03,Rain,Rain,70,2013-12-09 08:24:00
3:31 AM,33.8,32.0,93,30.38,3.0,East,10.4,-,0.03,Rain,Light Rain,80,2013-12-09 08:31:00
3:53 AM,34.0,32.0,92,30.36,4.0,East,10.4,-,0.04,Rain,Light Rain,80,2013-12-09 08:53:00
4:36 AM,35.6,33.8,93,30.34,4.0,East,16.1,19.6,0.02,Rain,Light Rain,80,2013-12-09 09:36:00
4:51 AM,35.6,33.8,93,30.33,5.0,East,13.8,-,0.03,Rain,Light Rain,80,2013-12-09 09:51:00
4:53 AM,35.1,33.1,92,30.33,5.0,East,13.8,-,0.04,Rain,Light Rain,80,2013-12-09 09:53:00
5:53 AM,37.0,34.0,89,30.30,3.0,East,16.1,21.9,0.05,Rain,Rain,80,2013-12-09 10:53:00
6:08 AM,37.4,33.8,87,30.28,5.0,East,12.7,25.3,0.02,Rain,Light Rain,90,2013-12-09 11:08:00
6:44 AM,37.4,35.6,93,30.27,10.0,East,13.8,24.2,0.03,Rain,Light Rain,100,2013-12-09 11:44:00
6:51 AM,37.4,35.6,93,30.26,10.0,East,16.1,23.0,0.03,Rain,Light Rain,100,2013-12-09 11:51:00
6:53 AM,37.9,35.1,89,30.26,10.0,East,16.1,23.0,0.03,Rain,Light Rain,100,2013-12-09 11:53:00
7:53 AM,39.0,36.0,89,30.23,10.0,East,16.1,24.2,0.00,,Overcast,90,2013-12-09 12:53:00
8:53 AM,39.9,37.0,89,30.17,8.0,East,16.1,27.6,0.01,Rain,Light Rain,100,2013-12-09 13:53:00
9:53 AM,41.0,37.9,89,30.12,10.0,ESE,18.4,26.5,0.00,,Overcast,110,2013-12-09 14:53:00
10:31 AM,42.8,39.2,87,30.10,2.5,ESE,11.5,23.0,0.04,Rain,Rain,110,2013-12-09 15:31:00
10:53 AM,42.1,39.9,92,30.10,1.5,ESE,10.4,19.6,0.12,Rain,Rain,120,2013-12-09 15:53:00
11:09 AM,42.8,41.0,93,30.10,2.0,East,6.9,-,0.02,Rain,Light Rain,80,2013-12-09 16:09:00
11:28 AM,44.6,41.0,87,30.09,1.5,ESE,5.8,-,0.04,Rain,Light Rain,120,2013-12-09 16:28:00
11:53 AM,44.1,42.1,93,30.06,1.8,East,6.9,-,0.06,Rain,Light Rain,80,2013-12-09 16:53:00
12:00 PM,44.6,42.8,93,30.05,2.0,ENE,4.6,-,0.00,Rain,Light Rain,70,2013-12-09 17:00:00
12:30 PM,44.6,42.8,93,30.02,2.0,East,6.9,-,0.01,Rain,Light Rain,80,2013-12-09 17:30:00
12:48 PM,44.6,42.8,93,30.00,1.8,ENE,6.9,-,0.01,Rain,Light Rain,70,2013-12-09 17:48:00
12:53 PM,45.0,43.0,93,29.99,1.8,East,5.8,-,0.01,Rain,Light Rain,80,2013-12-09 17:53:00
1:00 PM,46.4,44.6,93,29.99,1.8,East,5.8,-,0.00,Rain,Light Rain,80,2013-12-09 18:00:00
1:09 PM,46.4,42.8,87,29.98,2.0,East,8.1,-,0.01,,Overcast,80,2013-12-09 18:09:00
1:27 PM,46.4,44.6,93,29.97,1.8,East,5.8,-,0.01,,Overcast,80,2013-12-09 18:27:00
1:37 PM,46.4,44.6,93,29.95,2.0,East,5.8,-,0.01,,Overcast,90,2013-12-09 18:37:00
1:49 PM,46.4,44.6,93,29.93,1.8,East,8.1,-,0.01,Rain,Light Rain,90,2013-12-09 18:49:00
1:53 PM,46.0,45.0,96,29.94,1.8,East,6.9,-,0.01,Rain,Light Rain,80,2013-12-09 18:53:00
2:36 PM,46.4,44.6,93,29.89,2.0,ESE,6.9,-,0.00,,Overcast,110,2013-12-09 19:36:00
2:53 PM,48.0,46.0,93,29.88,2.5,East,4.6,-,0.00,,Overcast,90,2013-12-09 19:53:00
3:29 PM,46.4,46.4,100,29.88,1.5,Calm,Calm,-,0.01,,Overcast,0,2013-12-09 20:29:00
3:53 PM,48.0,46.0,93,29.87,1.8,Calm,Calm,-,0.01,,Overcast,0,2013-12-09 20:53:00
4:48 PM,46.4,44.6,93,29.89,3.0,NNW,8.1,-,N/A,,Overcast,330,2013-12-09 21:48:00
4:49 PM,46.9,45.0,93,29.89,3.0,NNW,9.2,-,N/A,,Overcast,330,2013-12-09 21:49:00
5:00 PM,44.6,42.8,93,29.88,2.5,NNW,9.2,-,N/A,,Overcast,330,2013-12-09 22:00:00
5:28 PM,44.6,42.8,93,29.89,1.5,WNW,3.5,-,N/A,,Overcast,290,2013-12-09 22:28:00
5:53 PM,45.0,43.0,93,29.89,1.2,West,3.5,-,N/A,,Overcast,280,2013-12-09 22:53:00
6:53 PM,44.1,43.0,96,29.89,0.8,West,4.6,-,N/A,,Overcast,270,2013-12-09 23:53:00
7:53 PM,45.0,43.0,93,29.91,1.0,West,8.1,-,N/A,,Overcast,260,2013-12-10 00:53:00
8:19 PM,44.6,42.8,93,29.91,3.0,West,11.5,19.6,N/A,,Overcast,270,2013-12-10 01:19:00
8:53 PM,45.0,43.0,93,29.91,10.0,WSW,11.5,20.7,N/A,,Overcast,250,2013-12-10 01:53:00
9:04 PM,44.6,42.8,93,29.91,10.0,West,11.5,26.5,N/A,,Overcast,270,2013-12-10 02:04:00
9:53 PM,43.0,39.9,89,29.93,10.0,West,9.2,17.3,N/A,,Overcast,280,2013-12-10 02:53:00
10:16 PM,42.8,37.4,81,29.93,10.0,West,8.1,18.4,N/A,,Mostly Cloudy,260,2013-12-10 03:16:00
10:53 PM,42.1,37.0,82,29.94,10.0,West,11.5,19.6,N/A,,Mostly Cloudy,260,2013-12-10 03:53:00
11:53 PM,39.9,36.0,86,29.93,10.0,West,8.1,-,N/A,,Scattered Clouds,280,2013-12-10 04:53:00